www.pogodaiklimat.ru
ПОГОДА в Ниде

Архив погоды в Ниде (Литва)

Время
(UTC), дата
03 19.05
06 19.05
09 19.05
12 19.05
15 19.05
18 19.05
21 19.05
00 20.05
03 20.05
06 20.05
09 20.05
12 20.05
15 20.05
18 20.05
21 20.05
00 21.05
03 21.05
06 21.05
09 21.05
12 21.05
15 21.05
18 21.05
21 21.05
00 22.05
03 22.05
06 22.05
09 22.05
12 22.05
15 22.05
18 22.05
21 22.05
00 23.05
03 23.05
06 23.05
09 23.05
12 23.05
15 23.05
18 23.05
21 23.05
00 24.05
03 24.05
06 24.05
09 24.05
12 24.05
15 24.05
18 24.05
21 24.05
00 25.05
03 25.05
06 25.05
09 25.05
12 25.05
15 25.05
18 25.05
21 25.05
00 26.05
Ветер
(напр.,м/с)
Видим. Явления Облачность Т
(С)
Тd
(С)
f
(%)
Тe
(С)
Тes
(С)
Комфортность P
(гПа)
Po
(гПа)
Тmin
(С)
Tmax
(С)
R
(мм)
R24
(мм)
S
(см)
В 4-6 {6} 20 км ясно +16.0 +12.4 79 +15 +15 1013.9 1013.6
ЮВ 4-4 {6} 20 км ясно +16.9 +12.9 77 +16 +20 1014.2 1013.9 +15.7
СВ 1-2 {5} 19 км 3/1 1000 м
[Cu hum Ci sp]
+20.9 +12.2 57 +24 +38 комфорт 1014.3 1014.0
Ю 4-6 {7} 20 км 1/1 600 м
[Cu med, cong]
+23.5 +11.2 46 +25 +33 комфорт 1013.2 1012.9
ЮВ 1-2 {6} 20 км 3/1 600 м
[Cu med, cong Ci sp]
+24.4 +8.3 36 +25 +31 комфорт 1012.0 1011.7
ЮВ 2-4 {5} 20 км ясно +21.6 +11.3 52 +24 +24 комфорт 1011.7 1011.4 +25.1
С 3-5 {7} 18 км ясно +18.8 +13.0 69 +20 +20 1012.1 1011.7
В 2-3 {7} 20 км ясно +17.2 +13.1 77 +18 +18 1012.5 1012.2
СВ 2-3 {4} 20 км 8/0 +16.5 +12.6 78 +17 +17 1012.7 1012.4
С 2-4 {5} 19 км слаб. дождь 9/0 +16.9 +12.5 75 +17 +20 1014.1 1013.7 +15.0 0.1
С 2-3 {5} 20 км {ливн. дождь} 8/0
[Ac trans Ci sp]
+19.6 +13.1 66 +22 +30 комфорт 1014.6 1014.4
СЗ 4-7 {7} 19 км {ливн. дождь} 8/5 600 м
[Cb cap Ac cuf Ci ing]
+24.2 +9.1 38 +25 +28 комфорт 1014.4 1014.1
СЗ 2-5 {9} 20 км гроза без осадков 9/8 600 м
[Cb cap Ac cuf Ci ing]
+22.8 +9.6 43 +24 +25 комфорт 1014.1 1013.8
С 5-8 {10} 20 км 9/0 2000 м +20.3 +13.0 63 +22 +22 комфорт 1015.2 1015.0 +25.9 0.1
С 1-2 {13} 19 км слаб. ливневой дождь 9/0 +17.5 +13.0 75 +19 +19 1016.1 1015.8 5
СВ 5-9 {9} 20 км 9/0 +17.2 +12.9 76 +17 +17 1016.1 1015.8 5
СВ 4-6 {9} 20 км 9/0 +16.4 +12.9 80 +16 +16 1016.2 1015.9
СВ 3-4 {7} 20 км 9/0 +17.1 +13.1 77 +17 +19 1017.2 1016.9 +16.2 5
С 3-5 {5} 18 км 3/0
[Ci sp]
+21.5 +14.8 66 +25 +35 комфорт 1017.2 1016.9
С 1-2 {6} 20 км 3/1 600 м
[Cb calv Ci ing]
+24.9 +14.1 51 +27 +41 жарко 1016.6 1016.3
С 6-11 {13} 20 км гроза, ливневой дождь 9/8 1380 м
[Cb cap Ci fib]
+21.5 +13.2 59 +24 +24 комфорт 1016.1 1015.8
СВ 5-8 {11} 20 км ясно +21.0 +14.5 66 +24 +24 комфорт 1016.0 1015.7 +26.2
СВ 7-9 {9} 20 км ясно +18.7 +14.0 74 +19 +19 1016.4 1016.1
СВ 7-10 {10} 20 км ясно +17.0 +13.7 81 +16 +16 1016.6 1016.3
СВ 8-10 {11} 20 км ясно +15.9 +13.4 85 +14 +14 1016.2 1015.9
В 6-9 {11} 20 км ясно +18.1 +13.5 74 +18 +20 1016.7 1016.3 +15.9
СВ 5-9 {10} 20 км 1/1 600 м
[Cu hum]
+21.5 +14.3 64 +24 +31 комфорт 1016.0 1015.7
В 6-9 {11} 20 км 3/3 600 м
[Cb cap]
+23.1 +13.5 55 +26 +30 жарко 1015.0 1014.7
В 6-9 {11} 20 км 3/3 600 м
[Cu med, cong]
+23.3 +14.2 57 +27 +29 душно 1013.7 1013.4
СВ 7-9 {11} 20 км ясно +21.8 +14.7 64 +25 +25 комфорт 1013.8 1013.5 +23.7
СВ 8-10 {11} 20 км ясно +19.7 +14.5 72 +21 +21 комфорт 1014.8 1014.5
В 7-10 {11} 20 км ясно +18.9 +14.4 75 +19 +19 1014.5 1014.2
В 8-12 {12} 20 км 6/0 +18.2 +13.9 76 +18 +18 1015.3 1015.0
В 7-10 {12} 20 км 9/0 +19.2 +13.8 71 +20 +21 1016.6 1016.4 +18.1
В 6-8 {11} 20 км в посл. час ливневой дождь 8/4 600 м
[Cb cap As trans]
+20.0 +14.6 71 +22 +24 комфорт 1017.6 1017.2
В 3-4 {10} 20 км в посл. час ливневой дождь 9/3 1000 м
[Cb cap As trans]
+19.6 +15.7 78 +22 +26 комфорт 1018.0 1017.7
СВ 7-9 {11} 20 км {ливн. дождь} 10/3 1000 м
[Cb cap As op]
+21.4 +15.2 68 +25 +25 комфорт 1016.6 1016.2
СВ 4-6 {11} 20 км 9/0 +20.9 +16.0 74 +24 +25 комфорт 1016.7 1016.4 +21.6 0.3
В 7-10 {12} 19 км 8/0 +19.9 +14.0 69 +21 +21 комфорт 1018.8 1018.5
В 7-10 {13} 20 км 3/0 +19.5 +14.6 73 +21 +21 комфорт 1019.6 1019.2
В 6-8 {10} 20 км 10/0 +18.5 +13.7 74 +19 +19 1020.1 1019.8
В 5-8 {10} 20 км 6/0 +18.3 +14.0 76 +18 +20 1021.1 1020.9 +18.0
В 3-4 {9} 20 км 3/0
[Cc]
+21.4 +15.8 70 +25 +36 комфорт 1021.5 1021.2
Ю 1-2 {4} 20 км 1/0
[Ci fib]
+25.4 +15.1 53 +28 +45 жарко 1021.0 1020.7
ЮВ 3-6 {8} 18 км 3/1 1000 м
[Cb cap Ac cast Ci ing]
+25.9 +14.6 50 +28 +32 жарко 1020.3 1020.0
В 3-4 {7} 20 км 1/0 +22.3 +16.1 68 +26 +27 жарко 1020.4 1020.1 +27.4
СВ 3-4 {5} 19 км 5/0 +20.7 +15.7 73 +24 +24 комфорт 1020.8 1020.5
В 5-7 {9} 20 км 9/0 +19.2 +15.0 77 +20 +20 1020.8 1020.5
В 5-7 {7} 20 км 3/0 +19.1 +14.1 73 +20 +20 1021.2 1020.9
В 4-7 {8} 20 км 9/0 +20.4 +14.2 68 +23 +25 комфорт 1021.9 1021.6 +19.0
В 2-3 {7} 19 км 1/0
[Ci sp]
+23.0 +15.5 63 +27 +41 душно 1022.5 1022.2
Ю 1-3 {3} 19 км 4/1 600 м
[Cb cap Ci ing]
+24.9 +13.1 48 +27 +41 жарко 1021.8 1021.5
ЮВ 3-5 {7} 20 км 3/1 600 м
[Cb cap Ci ing]
+23.9 +15.7 60 +27 +31 жарко 1020.9 1020.6
СВ 4-6 {8} 20 км 10/0 +22.1 +15.0 64 +26 +26 душно 1021.4 1021.1 +25.8
ЮВ 4-5 {10} 20 км слаб. ливневой дождь 3/0 +19.8 +14.3 71 +22 +22 комфорт 1022.4 1022.1
В 5-8 {9} 20 км 1/0 +17.6 +13.9 79 +17 +17 1022.5 1022.2
Местоположение метеостанции Нида (Литва): широта 55.32 долгота 21.02 высота над уровнем моря 3 м.
В архиве по умолчанию представлена погода в Ниде за последнюю неделю. Архивные данные за месяц целиком и за предыдущие месяцы, начиная с января 2011 года, Вы можете получить, выбрав интересующий диапазон дат из раскрывающегося списка и нажав кнопку "Найти!".
*Определитесь, кто Вы:
Внимание! Время в таблицах - всемирное. Для получения местного времени необходимо прибавить поправку, которая равна 2 ч.
Некоторые строки с данными для отдельных станций могут быть выделены курсивом. Это означает, что фактические данные отсутствуют по различным причинам, а приведенные значения являются расчетными модельными данными для данного пункта наблюдений.
Смотрите также архив погоды в соседних городах и на ближайших метеорологических станциях:
Партнеры нашего сайта:      
Пояснения к столбцам:
  • Ветер - указаны скорость ветра в м/с - средняя за 10 мин, порывы в срок и между сроками (в фигурных скобках) и направление, откуда дует ветер: С - северный,
  • СВ - северо-восточный, В - восточный, ЮВ - юго-восточный, Ю - южный, ЮЗ - юго-западный, З - западный, СЗ - северо-западный.
  • Видимость - горизонтальная дальность видимости в метрах или километрах. При видимости от 1 до 10 км при отсутствии осадков обычно наблюдается дымка, при ухудшении видимости до 1 км и менее - туман. В сухую погоду видимость может ухудшаться дымом, пылью или мглою.
  • Явления - указаны атмосферные явления, наблюдавшиеся в срок или в последний час перед сроком; фигурными скобками обозначены явления, наблюдавшиеся между сроками (за 1-3 часа до срока); квадратными скобками обозначены град или гололедные отложения с указанием их диаметра в мм.
  • Облачность - указаны через наклонную черту общая и нижняя облачность в баллах и высота нижней границы облаков в метрах; квадратными скобками обозначены формы облаков: Ci - перистые, Cs - перисто-слоистые, Cc - перисто-кучевые, Ac - высококучевые, As - высокослоистые, Sc - слоисто-кучевые, Ns - слоисто-дождевые, Cu - кучевые, Cb - кучево-дождевые. Подробнее классификацию облаков см. в Атласе облаков (PDF).
  • T - Температура воздуха - температура, измеренная на высоте 2 м над землей.
  • Td - Температура точки росы - температура, при понижении до которой содержащийся в воздухе водяной пар достигнет насыщения.
  • f - Относительная влажность воздуха - влажноcть воздуха, измеренная на высоте 2 м над землей.
  • Te - Эффективная температура - температура, которую ощущает одетый по сезону человек в тени. Характеристика душности погоды. При расчете учитывается влияние влажности воздуха и скорости ветра на теплоощущения человека.
  • Tes - Эффективная температура на солнце - температура, которую ощущает человек, с поправкой на солнечный нагрев. Характеристика знойности погоды. Зависит от высоты солнца над горизонтом, облачности и скорости ветра. Ночью, в пасмурную погоду, а также при ветре 12 м/с и более поправка равна нулю.
  • P - Атмосферное давление - приведенное к уровню моря атмосферное давление.
  • Po - Атмосферное давление - измеренное на уровне метеостанции атмосферное давление.
  • Tmin - Минимальная температура - минимум температуры воздуха на высоте 2 м над землей.
  • Tmax - Максимальная температура - максимум температуры воздуха на высоте 2 м над землей.
  • R - Количество осадков - Количество выпавших осадков за период времени, мм. При наведении курсора мыши на число - период времени, за который выпало указанное количество осадков.
  • R24 - Количество осадков - Количество выпавших осадков за 24 часа, мм.
  • S - Снежный покров - Высота снежного покрова, см. При наведении курсора мыши на число - состояние снежного покрова и степень покрытия местности в баллах.